JAL418 RCTP-ROAH

Flight info

Callsign JAL418
Flight time 1h 15m
Altitude 37000
Route KUDOS1A KUDOS R595 SEDKU Y573 MJC Y57 VELNO
Aircraft B738/M-SDE2E3FGHIRWXY/LB1

Departure

Time 2026-04-18 03:00
Airport Taiwan Taoyuan International Airport (RCTP)

Arrival

Time 2026-04-18 04:15
Airport Naha International Airport (ROAH)
Time Latitude Longitude Altitude Speed Heading
2026-04-18 02:00 25.07652 121.23487 100 ft 0 kts 319°
2026-04-18 02:45 25.07648 121.23491 109 ft 4 kts 319°
2026-04-18 02:45 25.07627 121.23511 100 ft 4 kts 319°
2026-04-18 02:45 25.07607 121.23531 100 ft 4 kts 317°
2026-04-18 02:45 25.07588 121.23551 99 ft 4 kts 314°
2026-04-18 02:46 25.07575 121.23567 100 ft 2 kts 304°
2026-04-18 02:46 25.07569 121.23578 99 ft 2 kts 283°
2026-04-18 02:46 25.07569 121.23591 98 ft 2 kts 245°
2026-04-18 02:46 25.07574 121.23601 97 ft 2 kts 233°
2026-04-18 02:47 25.07579 121.23607 98 ft 0 kts 231°
2026-04-18 02:49 25.07578 121.23606 98 ft 1 kts 231°
2026-04-18 02:49 25.07570 121.23595 98 ft 4 kts 231°
2026-04-18 02:49 25.07547 121.23565 99 ft 7 kts 229°
2026-04-18 02:50 25.07510 121.23520 98 ft 9 kts 227°
2026-04-18 02:50 25.07460 121.23458 100 ft 12 kts 230°
2026-04-18 02:50 25.07401 121.23382 99 ft 14 kts 230°
2026-04-18 02:50 25.07341 121.23304 98 ft 13 kts 230°
2026-04-18 02:51 25.07285 121.23230 100 ft 12 kts 230°
2026-04-18 02:51 25.07220 121.23187 100 ft 11 kts 172°
2026-04-18 02:51 25.07152 121.23210 100 ft 10 kts 184°
2026-04-18 02:51 25.07100 121.23168 100 ft 9 kts 227°
2026-04-18 02:52 25.07057 121.23120 99 ft 9 kts 225°
2026-04-18 02:52 25.07019 121.23071 99 ft 8 kts 230°
2026-04-18 02:52 25.06984 121.23024 99 ft 8 kts 230°
2026-04-18 02:52 25.06951 121.22980 98 ft 7 kts 230°
2026-04-18 02:53 25.06913 121.22935 99 ft 9 kts 228°
2026-04-18 02:53 25.06866 121.22875 99 ft 12 kts 229°
2026-04-18 02:53 25.06808 121.22801 99 ft 14 kts 229°
2026-04-18 02:53 25.06740 121.22715 99 ft 16 kts 228°
2026-04-18 02:54 25.06662 121.22619 98 ft 18 kts 230°
2026-04-18 02:54 25.06579 121.22512 99 ft 19 kts 229°
2026-04-18 02:54 25.06488 121.22397 98 ft 20 kts 229°
2026-04-18 02:54 25.06402 121.22287 100 ft 14 kts 228°
2026-04-18 02:55 25.06334 121.22254 99 ft 10 kts 187°
2026-04-18 02:55 25.06270 121.22247 99 ft 9 kts 184°
2026-04-18 02:55 25.06204 121.22255 98 ft 11 kts 150°
2026-04-18 02:55 25.06166 121.22289 98 ft 0 kts 138°
2026-04-18 02:58 25.06165 121.22290 98 ft 1 kts 138°
2026-04-18 02:58 25.06139 121.22316 96 ft 9 kts 138°
2026-04-18 02:58 25.06106 121.22383 97 ft 10 kts 56°
2026-04-18 02:59 25.06166 121.22457 95 ft 23 kts 49°
2026-04-18 02:59 25.06430 121.22793 92 ft 93 kts 49°
2026-04-18 02:59 25.06983 121.23493 97 ft 149 kts 48°
2026-04-18 02:59 25.07697 121.24428 575 ft 160 kts 49°
2026-04-18 03:00 25.08426 121.25387 1189 ft 169 kts 48°
2026-04-18 03:00 25.09212 121.26437 1683 ft 186 kts 46°
2026-04-18 03:00 25.10149 121.27541 2055 ft 211 kts 43°
2026-04-18 03:00 25.11254 121.28778 2156 ft 244 kts 43°
2026-04-18 03:01 25.12554 121.30238 2168 ft 282 kts 45°
2026-04-18 03:01 25.13861 121.31832 3240 ft 277 kts 47°
2026-04-18 03:01 25.15162 121.33417 4049 ft 280 kts 46°
2026-04-18 03:01 25.16499 121.34996 4946 ft 283 kts 44°
2026-04-18 03:02 25.17895 121.36589 5565 ft 293 kts 46°
2026-04-18 03:02 25.19290 121.38243 6310 ft 295 kts 46°
2026-04-18 03:02 25.20702 121.39907 6976 ft 300 kts 45°
2026-04-18 03:02 25.22145 121.41592 7662 ft 303 kts 45°
2026-04-18 03:03 25.23610 121.43289 8346 ft 307 kts 43°
2026-04-18 03:03 25.25110 121.45021 9271 ft 312 kts 45°
2026-04-18 03:03 25.26576 121.46713 10371 ft 310 kts 44°
2026-04-18 03:03 25.28109 121.48490 10727 ft 332 kts 46°
2026-04-18 03:04 25.29283 121.50785 10918 ft 355 kts 75°
2026-04-18 03:04 25.29453 121.53518 11430 ft 362 kts 98°
2026-04-18 03:04 25.28812 121.56206 12052 ft 362 kts 112°
2026-04-18 03:04 25.27891 121.58807 12807 ft 365 kts 115°
2026-04-18 03:05 25.26902 121.61411 13608 ft 370 kts 116°
2026-04-18 03:05 25.25893 121.64054 14187 ft 376 kts 115°
2026-04-18 03:05 25.24888 121.66728 14842 ft 379 kts 115°
2026-04-18 03:05 25.23889 121.69427 15544 ft 380 kts 115°
2026-04-18 03:06 25.22892 121.72148 16215 ft 383 kts 114°
2026-04-18 03:06 25.21891 121.74898 16855 ft 387 kts 114°
2026-04-18 03:06 25.20885 121.77670 17497 ft 391 kts 114°
2026-04-18 03:06 25.19871 121.80467 18136 ft 394 kts 114°
2026-04-18 03:07 25.18850 121.83283 18701 ft 397 kts 114°
2026-04-18 03:07 25.17820 121.86120 19265 ft 400 kts 115°
2026-04-18 03:07 25.16781 121.88980 19822 ft 403 kts 115°
2026-04-18 03:07 25.15735 121.91860 20312 ft 405 kts 115°
2026-04-18 03:08 25.14693 121.94723 20709 ft 409 kts 115°
2026-04-18 03:08 25.13628 121.97645 21135 ft 412 kts 115°
2026-04-18 03:08 25.12844 122.00702 21540 ft 420 kts 98°
2026-04-18 03:08 25.12644 122.03928 22027 ft 422 kts 95°
2026-04-18 03:09 25.12476 122.07172 22480 ft 425 kts 96°
2026-04-18 03:09 25.12240 122.10431 22851 ft 428 kts 98°
2026-04-18 03:09 25.11956 122.13713 23254 ft 430 kts 98°
2026-04-18 03:09 25.11657 122.17007 23641 ft 433 kts 98°
2026-04-18 03:10 25.11357 122.20327 23957 ft 436 kts 98°
2026-04-18 03:10 25.11062 122.23672 24253 ft 439 kts 98°
2026-04-18 03:10 25.10768 122.27047 24547 ft 443 kts 98°
2026-04-18 03:10 25.10470 122.30442 24846 ft 446 kts 99°
2026-04-18 03:11 25.10157 122.33855 25144 ft 449 kts 99°
2026-04-18 03:11 25.09831 122.37289 25458 ft 451 kts 99°
2026-04-18 03:11 25.09499 122.40736 25774 ft 453 kts 99°
2026-04-18 03:11 25.09163 122.44204 26050 ft 456 kts 99°
2026-04-18 03:12 25.08827 122.47668 26315 ft 460 kts 99°
2026-04-18 03:12 25.08487 122.51182 26588 ft 463 kts 99°
2026-04-18 03:12 25.08144 122.54728 26863 ft 465 kts 99°
2026-04-18 03:12 25.07799 122.58285 27130 ft 468 kts 100°
2026-04-18 03:13 25.07452 122.61863 27386 ft 471 kts 100°
2026-04-18 03:13 25.07102 122.65467 27645 ft 473 kts 100°
2026-04-18 03:13 25.06749 122.69081 27907 ft 475 kts 100°
2026-04-18 03:13 25.06394 122.72716 28151 ft 478 kts 100°
2026-04-18 03:14 25.06036 122.76367 28388 ft 481 kts 100°
2026-04-18 03:14 25.05674 122.80052 28629 ft 483 kts 100°
2026-04-18 03:14 25.05310 122.83745 28866 ft 485 kts 100°
2026-04-18 03:14 25.04943 122.87461 29102 ft 488 kts 100°
2026-04-18 03:15 25.04579 122.91143 29328 ft 490 kts 100°
2026-04-18 03:15 25.04208 122.94893 29569 ft 492 kts 100°
2026-04-18 03:15 25.03834 122.98649 29784 ft 494 kts 101°
2026-04-18 03:15 25.03454 123.02423 29988 ft 496 kts 101°
2026-04-18 03:16 25.03062 123.06212 30173 ft 498 kts 101°
2026-04-18 03:16 25.02663 123.10021 30374 ft 500 kts 101°
2026-04-18 03:16 25.02269 123.13793 30581 ft 501 kts 101°
2026-04-18 03:16 25.01871 123.17614 30779 ft 501 kts 101°
2026-04-18 03:17 25.01475 123.21438 31020 ft 501 kts 100°
2026-04-18 03:17 25.01084 123.25271 31206 ft 503 kts 100°
2026-04-18 03:17 25.00694 123.29109 31360 ft 505 kts 100°
2026-04-18 03:17 25.00302 123.32960 31517 ft 506 kts 100°
2026-04-18 03:18 24.99908 123.36823 31687 ft 508 kts 100°
2026-04-18 03:18 24.99512 123.40692 31856 ft 509 kts 100°
2026-04-18 03:18 24.99113 123.44578 32018 ft 510 kts 100°
2026-04-18 03:18 24.98713 123.48464 32200 ft 511 kts 100°
2026-04-18 03:19 24.98311 123.52353 32436 ft 510 kts 100°
2026-04-18 03:19 24.97909 123.56235 32699 ft 509 kts 100°
2026-04-18 03:19 24.97511 123.60069 32930 ft 508 kts 100°
2026-04-18 03:19 24.97107 123.63945 33147 ft 508 kts 100°
2026-04-18 03:20 24.96702 123.67816 33376 ft 508 kts 100°
2026-04-18 03:20 24.96296 123.71691 33627 ft 507 kts 100°
2026-04-18 03:20 24.95891 123.75550 33895 ft 506 kts 100°
2026-04-18 03:20 24.95487 123.79390 34093 ft 506 kts 100°
2026-04-18 03:21 24.95079 123.83249 34272 ft 506 kts 100°
2026-04-18 03:21 24.94670 123.87108 34430 ft 507 kts 100°
2026-04-18 03:21 24.94262 123.90959 34642 ft 506 kts 100°
2026-04-18 03:21 24.93854 123.94806 34878 ft 505 kts 100°
2026-04-18 03:22 24.93040 124.02387 34946 ft 496 kts 101°
2026-04-18 03:22 24.92177 124.09878 34953 ft 490 kts 101°
2026-04-18 03:23 24.91298 124.17324 34964 ft 489 kts 101°
2026-04-18 03:23 24.90571 124.23503 34957 ft 489 kts 101°
2026-04-18 03:24 24.89700 124.30926 34965 ft 488 kts 101°
2026-04-18 03:24 24.88827 124.38346 34955 ft 489 kts 101°
2026-04-18 03:25 24.87950 124.45778 34958 ft 489 kts 101°
2026-04-18 03:25 24.87067 124.53220 34949 ft 490 kts 101°
2026-04-18 03:26 24.86179 124.60666 34952 ft 490 kts 101°
2026-04-18 03:26 24.85293 124.68070 34950 ft 491 kts 101°
2026-04-18 03:27 24.84397 124.75531 34947 ft 492 kts 101°
2026-04-18 03:27 24.83496 124.82998 34952 ft 492 kts 101°
2026-04-18 03:28 24.82587 124.90463 34947 ft 492 kts 101°
2026-04-18 03:28 24.81655 124.97925 34938 ft 492 kts 102°
2026-04-18 03:29 24.80718 125.05380 34935 ft 491 kts 101°
2026-04-18 03:29 24.79789 125.12772 34938 ft 490 kts 102°
2026-04-18 03:30 24.78855 125.20192 34928 ft 484 kts 102°
2026-04-18 03:30 24.78403 125.23838 34681 ft 479 kts 99°
2026-04-18 03:30 24.78385 125.27490 34375 ft 477 kts 84°
2026-04-18 03:31 24.79084 125.31050 34066 ft 475 kts 72°
2026-04-18 03:31 24.80399 125.34371 33688 ft 471 kts 58°
2026-04-18 03:31 24.82123 125.37423 33328 ft 468 kts 56°
2026-04-18 03:31 24.83860 125.40399 32920 ft 465 kts 56°
2026-04-18 03:32 24.85610 125.43385 32544 ft 463 kts 56°
2026-04-18 03:32 24.87347 125.46370 32161 ft 461 kts 57°
2026-04-18 03:32 24.89058 125.49341 31787 ft 458 kts 57°
2026-04-18 03:32 24.90753 125.52309 31409 ft 456 kts 57°
2026-04-18 03:33 24.92431 125.55265 31044 ft 454 kts 57°
2026-04-18 03:33 24.94097 125.58210 30661 ft 453 kts 57°
2026-04-18 03:33 24.95762 125.61159 30291 ft 452 kts 57°
2026-04-18 03:33 24.97423 125.64103 29877 ft 451 kts 57°
2026-04-18 03:34 24.99073 125.67029 29484 ft 448 kts 57°
2026-04-18 03:34 25.00712 125.69937 29066 ft 446 kts 57°
2026-04-18 03:34 25.02343 125.72831 28668 ft 443 kts 57°
2026-04-18 03:34 25.03963 125.75708 28280 ft 440 kts 57°
2026-04-18 03:35 25.05575 125.78571 27893 ft 437 kts 57°
2026-04-18 03:35 25.07149 125.81369 27522 ft 434 kts 57°
2026-04-18 03:35 25.08757 125.84227 27142 ft 431 kts 57°
2026-04-18 03:35 25.10310 125.86990 26775 ft 429 kts 57°
2026-04-18 03:36 25.11876 125.89778 26404 ft 426 kts 57°
2026-04-18 03:36 25.13433 125.92552 26037 ft 424 kts 57°
2026-04-18 03:36 25.14983 125.95315 25660 ft 422 kts 57°
2026-04-18 03:36 25.16524 125.98064 25280 ft 421 kts 57°
2026-04-18 03:37 25.18062 126.00807 24912 ft 419 kts 57°
2026-04-18 03:37 25.19594 126.03542 24542 ft 417 kts 57°
2026-04-18 03:37 25.21116 126.06262 24172 ft 416 kts 57°
2026-04-18 03:37 25.22637 126.08981 23794 ft 415 kts 57°
2026-04-18 03:38 25.24131 126.11654 23399 ft 414 kts 57°
2026-04-18 03:38 25.25643 126.14359 22978 ft 411 kts 57°
2026-04-18 03:38 25.27138 126.17037 22597 ft 408 kts 57°
2026-04-18 03:38 25.28623 126.19698 22232 ft 405 kts 57°
2026-04-18 03:39 25.30101 126.22348 21863 ft 402 kts 57°
2026-04-18 03:39 25.31560 126.24965 21506 ft 399 kts 57°
2026-04-18 03:39 25.33009 126.27566 21157 ft 396 kts 57°
2026-04-18 03:39 25.34449 126.30153 20804 ft 393 kts 57°
2026-04-18 03:40 25.35877 126.32718 20446 ft 390 kts 57°
2026-04-18 03:40 25.37293 126.35264 20108 ft 388 kts 57°
2026-04-18 03:40 25.38701 126.37797 19765 ft 385 kts 57°
2026-04-18 03:40 25.40088 126.40293 19413 ft 383 kts 57°
2026-04-18 03:41 25.41478 126.42796 19074 ft 381 kts 57°
2026-04-18 03:41 25.42866 126.45296 18716 ft 380 kts 57°
2026-04-18 03:41 25.44245 126.47783 18377 ft 378 kts 57°
2026-04-18 03:41 25.45615 126.50253 17983 ft 376 kts 57°
2026-04-18 03:42 25.46978 126.52712 17622 ft 373 kts 57°
2026-04-18 03:42 25.48331 126.55157 17267 ft 370 kts 57°
2026-04-18 03:42 25.49664 126.57581 16934 ft 368 kts 57°
2026-04-18 03:42 25.50988 126.59993 16594 ft 365 kts 57°
2026-04-18 03:43 25.52299 126.62384 16255 ft 362 kts 57°
2026-04-18 03:43 25.53605 126.64768 15918 ft 360 kts 57°
2026-04-18 03:43 25.54900 126.67131 15587 ft 358 kts 57°
2026-04-18 03:43 25.56171 126.69451 15260 ft 356 kts 57°
2026-04-18 03:44 25.57451 126.71789 14929 ft 354 kts 57°
2026-04-18 03:44 25.58725 126.74117 14597 ft 352 kts 56°
2026-04-18 03:44 25.59993 126.76435 14251 ft 351 kts 57°
2026-04-18 03:44 25.61255 126.78742 13934 ft 349 kts 56°
2026-04-18 03:45 25.62509 126.81037 13586 ft 348 kts 56°
2026-04-18 03:45 25.63759 126.83325 13230 ft 346 kts 56°
2026-04-18 03:45 25.65002 126.85602 12895 ft 343 kts 56°
2026-04-18 03:45 25.66233 126.87858 12559 ft 341 kts 56°
2026-04-18 03:46 25.67458 126.90103 12235 ft 339 kts 56°
2026-04-18 03:46 25.68673 126.92330 11920 ft 336 kts 56°
2026-04-18 03:46 25.69877 126.94540 11626 ft 334 kts 56°
2026-04-18 03:46 25.71071 126.96733 11336 ft 331 kts 56°
2026-04-18 03:47 25.72255 126.98909 11058 ft 328 kts 56°
2026-04-18 03:47 25.73426 127.01061 10797 ft 324 kts 56°
2026-04-18 03:47 25.74585 127.03193 10528 ft 321 kts 56°
2026-04-18 03:47 25.75736 127.05311 10261 ft 319 kts 56°
2026-04-18 03:48 25.76862 127.07384 9993 ft 317 kts 56°
2026-04-18 03:48 25.77997 127.09475 9704 ft 315 kts 56°
2026-04-18 03:48 25.79122 127.11546 9410 ft 312 kts 56°
2026-04-18 03:48 25.80239 127.13605 9123 ft 310 kts 56°
2026-04-18 03:49 25.81351 127.15655 8844 ft 307 kts 57°
2026-04-18 03:49 25.82446 127.17677 8573 ft 305 kts 57°
2026-04-18 03:49 25.83533 127.19683 8308 ft 302 kts 57°
2026-04-18 03:49 25.84612 127.21675 8050 ft 300 kts 57°
2026-04-18 03:50 25.85682 127.23652 7789 ft 297 kts 57°
2026-04-18 03:50 25.86745 127.25616 7533 ft 295 kts 57°
2026-04-18 03:50 25.87784 127.27537 7279 ft 293 kts 57°
2026-04-18 03:50 25.88830 127.29471 7028 ft 291 kts 57°
2026-04-18 03:51 25.89797 127.31439 6765 ft 290 kts 68°
2026-04-18 03:51 25.90392 127.33569 6522 ft 287 kts 75°
2026-04-18 03:51 25.90865 127.35716 6269 ft 285 kts 76°
2026-04-18 03:51 25.91323 127.37856 6001 ft 283 kts 76°
2026-04-18 03:52 25.91787 127.39973 5755 ft 281 kts 76°
2026-04-18 03:52 25.92258 127.42072 5496 ft 279 kts 75°
2026-04-18 03:52 25.92734 127.44152 5250 ft 277 kts 75°
2026-04-18 03:52 25.93211 127.46213 5021 ft 275 kts 75°
2026-04-18 03:53 25.93688 127.48261 4773 ft 273 kts 75°
2026-04-18 03:53 25.94165 127.50302 4525 ft 271 kts 75°
2026-04-18 03:53 25.94634 127.52302 4291 ft 270 kts 75°
2026-04-18 03:53 25.95104 127.54312 4051 ft 267 kts 75°
2026-04-18 03:54 25.95570 127.56303 3818 ft 265 kts 75°
2026-04-18 03:54 25.96078 127.58262 3583 ft 263 kts 65°
2026-04-18 03:54 25.97195 127.59831 3377 ft 260 kts 36°
2026-04-18 03:54 25.98679 127.60966 3137 ft 258 kts 31°
2026-04-18 03:55 26.00175 127.62049 2886 ft 256 kts 31°
2026-04-18 03:55 26.01658 127.63134 2669 ft 254 kts 31°
2026-04-18 03:55 26.03121 127.64213 2420 ft 250 kts 32°
2026-04-18 03:55 26.04563 127.65234 2193 ft 241 kts 23°
2026-04-18 03:56 26.06134 127.65481 2044 ft 221 kts 351°
2026-04-18 03:56 26.07609 127.65325 1998 ft 210 kts 354°
2026-04-18 03:56 26.09022 127.65222 2007 ft 195 kts 354°
2026-04-18 03:56 26.10317 127.65136 1984 ft 177 kts 355°
2026-04-18 03:57 26.12658 127.64984 1997 ft 167 kts 354°
2026-04-18 03:57 26.13819 127.64908 1788 ft 169 kts 354°
2026-04-18 03:57 26.15033 127.64796 1172 ft 178 kts 352°
2026-04-18 03:58 26.16211 127.64703 864 ft 162 kts 357°
2026-04-18 03:58 26.17295 127.64677 557 ft 148 kts 359°
2026-04-18 03:58 26.18246 127.64658 1181 ft 113 kts 355°
2026-04-18 03:58 26.18994 127.64646 1669 ft 122 kts 356°
2026-04-18 03:59 26.20013 127.64638 1678 ft 171 kts 356°
2026-04-18 03:59 26.21326 127.64554 1709 ft 211 kts 352°
2026-04-18 03:59 26.22896 127.64390 1707 ft 235 kts 353°
2026-04-18 03:59 26.24548 127.64203 1692 ft 239 kts 347°
2026-04-18 04:00 26.25990 127.63400 1704 ft 233 kts 317°
2026-04-18 04:00 26.26965 127.61963 1692 ft 236 kts 301°
2026-04-18 04:00 26.28139 127.60701 1702 ft 239 kts 334°
2026-04-18 04:00 26.29687 127.60007 1684 ft 240 kts 336°
2026-04-18 04:01 26.31223 127.59308 1709 ft 238 kts 336°
2026-04-18 04:01 26.32736 127.58584 1704 ft 234 kts 335°
2026-04-18 04:01 26.34221 127.57849 1693 ft 232 kts 335°
2026-04-18 04:01 26.35685 127.57106 1695 ft 231 kts 334°
2026-04-18 04:02 26.37142 127.56356 1694 ft 230 kts 334°
2026-04-18 04:02 26.38571 127.55615 1683 ft 230 kts 334°
2026-04-18 04:02 26.39982 127.54765 1680 ft 232 kts 317°
2026-04-18 04:02 26.40753 127.53226 1697 ft 233 kts 277°
2026-04-18 04:03 26.40501 127.51462 1707 ft 234 kts 245°
2026-04-18 04:03 26.39512 127.50036 1697 ft 235 kts 220°
2026-04-18 04:03 26.38020 127.49315 1711 ft 238 kts 189°
2026-04-18 04:03 26.36345 127.49395 1710 ft 244 kts 172°
2026-04-18 04:04 26.34653 127.49772 1762 ft 254 kts 169°
2026-04-18 04:04 26.32883 127.50219 2401 ft 261 kts 169°
2026-04-18 04:04 26.31084 127.50673 2945 ft 265 kts 169°
2026-04-18 04:04 26.29291 127.51124 3091 ft 266 kts 169°
2026-04-18 04:05 26.27485 127.51572 2822 ft 270 kts 169°
2026-04-18 04:05 26.25660 127.52021 2578 ft 266 kts 169°
2026-04-18 04:05 26.23866 127.52458 2322 ft 262 kts 170°
2026-04-18 04:05 26.22098 127.52885 2088 ft 258 kts 169°
2026-04-18 04:06 26.20376 127.53301 2017 ft 248 kts 169°
2026-04-18 04:06 26.18730 127.53697 1999 ft 237 kts 170°
2026-04-18 04:06 26.17149 127.54078 1988 ft 228 kts 170°
2026-04-18 04:06 26.15634 127.54443 1978 ft 218 kts 171°
2026-04-18 04:07 26.14173 127.54794 1990 ft 214 kts 171°
2026-04-18 04:07 26.12720 127.55141 2013 ft 210 kts 171°
2026-04-18 04:07 26.11349 127.55469 1992 ft 199 kts 171°
2026-04-18 04:07 26.10011 127.55788 1991 ft 195 kts 171°
2026-04-18 04:08 26.08681 127.56106 1993 ft 197 kts 170°
2026-04-18 04:08 26.07318 127.56430 2008 ft 202 kts 170°
2026-04-18 04:08 26.05943 127.56758 2010 ft 201 kts 171°
2026-04-18 04:08 26.04579 127.57085 1989 ft 199 kts 169°
2026-04-18 04:09 26.03237 127.57406 1992 ft 195 kts 170°
2026-04-18 04:09 26.01919 127.57720 1991 ft 193 kts 170°
2026-04-18 04:09 26.00596 127.58045 2011 ft 196 kts 165°
2026-04-18 04:09 25.99487 127.58894 2003 ft 204 kts 124°
2026-04-18 04:10 25.99167 127.60421 2017 ft 208 kts 81°
2026-04-18 04:10 25.99809 127.61780 2011 ft 197 kts 37°
2026-04-18 04:10 26.00901 127.62604 2001 ft 186 kts 31°
2026-04-18 04:10 26.01628 127.63135 1993 ft 184 kts 31°
2026-04-18 04:11 26.03029 127.64162 1995 ft 181 kts 31°
2026-04-18 04:11 26.04079 127.64928 1983 ft 179 kts 29°
2026-04-18 04:11 26.05237 127.65231 1988 ft 169 kts 345°
2026-04-18 04:11 26.06421 127.65007 1991 ft 180 kts
2026-04-18 04:12 26.07666 127.65079 1971 ft 179 kts 354°
2026-04-18 04:12 26.08921 127.65006 1793 ft 181 kts 353°
2026-04-18 04:12 26.10170 127.64939 1553 ft 178 kts 355°
2026-04-18 04:12 26.10981 127.64903 1395 ft 174 kts 354°
2026-04-18 04:13 26.12159 127.64855 1166 ft 162 kts 354°
2026-04-18 04:13 26.13248 127.64809 1010 ft 151 kts 355°
2026-04-18 04:13 26.14305 127.64765 816 ft 151 kts 354°
2026-04-18 04:13 26.15349 127.64717 620 ft 149 kts 358°
2026-04-18 04:14 26.16380 127.64697 399 ft 149 kts
2026-04-18 04:14 26.17405 127.64694 253 ft 142 kts 354°
2026-04-18 04:14 26.18365 127.64638 40 ft 139 kts 355°
2026-04-18 04:14 26.19212 127.64605 17 ft 94 kts 358°
2026-04-18 04:15 26.19642 127.64587 15 ft 31 kts
2026-04-18 04:15 26.19812 127.64637 15 ft 25 kts 27°
2026-04-18 04:15 26.19871 127.64672 14 ft 0 kts 28°
2026-04-18 04:15 26.19871 127.64673 14 ft 0 kts 28°
2026-04-18 04:17 26.19888 127.64683 16 ft 9 kts 28°
2026-04-18 04:17 26.19976 127.64734 16 ft 20 kts 27°
2026-04-18 04:17 26.20136 127.64766 16 ft 27 kts 358°
2026-04-18 04:17 26.20318 127.64760 16 ft 16 kts 355°
2026-04-18 04:18 26.20403 127.64754 17 ft 6 kts 358°
2026-04-18 04:18 26.20410 127.64754 17 ft 3 kts 358°
2026-04-18 04:18 26.20477 127.64752 17 ft 16 kts 358°
2026-04-18 04:18 26.20632 127.64745 16 ft 28 kts 358°
2026-04-18 04:19 26.20851 127.64735 16 ft 34 kts 358°
2026-04-18 04:19 26.21058 127.64756 17 ft 23 kts 17°
2026-04-18 04:19 26.21140 127.64862 20 ft 13 kts 66°
2026-04-18 04:19 26.21153 127.64919 20 ft 1 kts 56°
2026-04-18 04:20 26.21164 127.64923 20 ft 3 kts 24°
2026-04-18 04:20 26.21175 127.64939 21 ft 2 kts 66°
2026-04-18 04:20 26.21176 127.64943 21 ft 0 kts 77°